Regional Weather Roundup
Issued by NWS

Home | Current Version | Previous Version | Graphics & Text | Print | Product List | Glossary On
Versions: 1 2 3 4 5 6 7 8 9 10 11 12 13 14 15 16 17 18 19 20 21 22 23 24 25 26 27 28 29 30 31 32 33 34 35 36 37 38 39 40 41 42 43 44 45 46 47 48 49 50
753
ASUS43 KLMK 200502
RWRKY
KENTUCKY REGIONAL WEATHER ROUNDUP
NATIONAL WEATHER SERVICE LOUISVILLE KY
1200 AM EST MON FEB 20 2017

NOTE "FAIR" INDICATES FEW OR NO CLOUDS BELOW 12,000 FEET
WITH NO SIGNIFICANT WEATHER AND/OR OBSTRUCTIONS TO VISIBILITY.

KYZ001>023-026-027-061>063-070>075-200600-
WESTERN AND SOUTH CENTRAL KENTUCKY

CITY           SKY/WX    TMP DP  RH WIND       PRES   REMARKS
PADUCAH        FOG       51  49  92 SE3       30.10F VSB 3/4
HENDERSON      CLOUDY    41  37  87 CALM      30.14S VSB<1/4
OWENSBORO      FOG       45  45 100 NE3       30.16R VSB 1/2
HOPKINSVILLE   PTCLDY    53  52  99 E5        30.13R
BOWLING GREEN  FOG       43  43 100 CALM      30.15S VSB 1/4
GLASGOW        NOT AVBL
$$

KYZ024-025-028>034-038-045-046-053-200600-
NORTH CENTRAL KENTUCKY

CITY           SKY/WX    TMP DP  RH WIND       PRES   REMARKS
LOUISVILLE/SDF PTCLDY    44  43  96 CALM      30.17R FOG
LOUISVILLE/LOU PTCLDY    43  41  93 CALM      30.17S FOG
FORT KNOX      FOG       40  40 100 CALM      30.15R VSB 1/4
$$

KYZ035>037-039>044-047>052-055>060-089>105-200600-
NORTHEAST KENTUCKY

CITY           SKY/WX    TMP DP  RH WIND       PRES   REMARKS
LEXINGTON      PTCLDY    39  37  92 CALM      30.17S FOG
COVINGTON      PTCLDY    42  42 100 S5        30.16S FOG
FRANKFORT      FOG       39  36  89 CALM      30.16S VSB 1/2
$$

KYZ054-064>069-076>088-106>120-200600-
SOUTHEAST KENTUCKY

CITY           SKY/WX    TMP DP  RH WIND       PRES   REMARKS
JACKSON        CLEAR     49  44  83 NE3       30.17S
LONDON         CLEAR     44  40  85 CALM      30.16S
SOMERSET       CLEAR     43  43 100 CALM      30.18R
MIDDLESBORO    CLEAR     40  40 100 CALM      30.20R
MONTICELLO     CLEAR     39  37  92 NE8       30.18R WCI  33
$$





USA.gov is the U.S. government's official web portal to all federal, state and local government web resources and services.